User: anonymous   Login
Location: Unspecified
(0.0000°N, 0.0000°E)
Time: 16:36:50
(UTC+00:00)
Language:

COSMOS 2484 - Orbit

View from above orbital plane
View from above orbital plane
View from above satellite
View from above satellite

Ground track
Ground track

The orbit data is extracted from the following two-line orbital elements,

1 39059U 13001C   17204.94602252 +.00000010 +00000-0 +00000-0 0  9996
2 39059 082.5021 082.7359 0024432 287.0122 072.8279 12.42887738204996
Epoch (UTC): 23 July 2017 22:42:16
Eccentricity: 0.0024432
inclination: 82.5021°
perigee height: 1475 km
apogee height: 1513 km
right ascension of ascending node: 82.7359°
argument of perigee: 287.0122°
revolutions per day: 12.42887738
mean anomaly at epoch: 72.8279°
orbit number at epoch: 20499

The dashed part of the orbit path shows where the satellite is in the earth's shadow,  

DLR